• Em Portugal
  • Lista de países
  • Para 7 dias
  • Temperatura da água
  • Mapas de satélite
  • Mapa do tempo
  • Widgets de tempo
  • user-avatar
    Iniciar Sessão

    Previsão horária em Karak

    Hoje, 16 Julho, Segunda-feira

    Tempo Temperatura Precipitação Vento Pressão Humidade
    00:00 +26°C° 0 mm 3 m/s 677 mmHg 44%
    01:00 +26°C° 0 mm 2 m/s 676 mmHg 45%
    02:00 +25°C° 0 mm 2 m/s 676 mmHg 46%
    03:00 +25°C° 0 mm 2 m/s 676 mmHg 46%
    04:00 +24°C° 0 mm 2 m/s 676 mmHg 47%
    05:00 +23°C° 0 mm 2 m/s 676 mmHg 47%
    06:00 +25°C° 0 mm 2 m/s 677 mmHg 41%
    07:00 +26°C° 0 mm 3 m/s 677 mmHg 35%
    08:00 +27°C° 0 mm 3 m/s 678 mmHg 29%
    09:00 +29°C° 0 mm 3 m/s 678 mmHg 25%
    10:00 +30°C° 0 mm 3 m/s 678 mmHg 22%
    11:00 +31°C° 0 mm 3 m/s 678 mmHg 18%
    12:00 +33°C° 0 mm 3 m/s 678 mmHg 17%
    13:00 +34°C° 0 mm 3 m/s 678 mmHg 16%
    14:00 +34°C° 0 mm 4 m/s 678 mmHg 16%
    15:00 +34°C° 0 mm 4 m/s 677 mmHg 17%
    16:00 +34°C° 0 mm 4 m/s 677 mmHg 19%
    17:00 +34°C° 0 mm 5 m/s 677 mmHg 20%
    18:00 +33°C° 0 mm 4 m/s 677 mmHg 26%
    19:00 +32°C° 0 mm 4 m/s 677 mmHg 31%
    20:00 +29°C° 0 mm 4 m/s 677 mmHg 36%
    21:00 +29°C° 0 mm 3 m/s 678 mmHg 39%
    22:00 +28°C° 0 mm 3 m/s 678 mmHg 41%
    23:00 +27°C° 0 mm 3 m/s 678 mmHg 44%

    Amanhã, 17 Julho, Terça-feira

    Tempo Temperatura Precipitação Vento Pressão Humidade
    00:00 +26°C° 0 mm 2 m/s 678 mmHg 45%
    01:00 +26°C° 0 mm 2 m/s 677 mmHg 46%
    02:00 +25°C° 0 mm 2 m/s 677 mmHg 47%
    03:00 +25°C° 0 mm 2 m/s 677 mmHg 48%
    04:00 +24°C° 0 mm 2 m/s 677 mmHg 48%
    05:00 +24°C° 0 mm 2 m/s 677 mmHg 49%
    06:00 +25°C° 0 mm 2 m/s 677 mmHg 45%
    07:00 +26°C° 0 mm 3 m/s 678 mmHg 41%
    08:00 +27°C° 0 mm 3 m/s 678 mmHg 37%
    09:00 +28°C° 0 mm 3 m/s 678 mmHg 34%
    10:00 +30°C° 0 mm 3 m/s 678 mmHg 30%
    11:00 +32°C° 0 mm 4 m/s 678 mmHg 27%
    12:00 +33°C° 0 mm 4 m/s 678 mmHg 25%
    13:00 +33°C° 0 mm 4 m/s 678 mmHg 23%
    14:00 +34°C° 0 mm 4 m/s 678 mmHg 21%
    15:00 +34°C° 0 mm 4 m/s 677 mmHg 22%
    16:00 +34°C° 0 mm 5 m/s 677 mmHg 23%
    17:00 +33°C° 0 mm 5 m/s 677 mmHg 24%
    18:00 +32°C° 0 mm 5 m/s 677 mmHg 27%
    19:00 +30°C° 0 mm 4 m/s 677 mmHg 31%
    20:00 +29°C° 0 mm 4 m/s 678 mmHg 34%
    21:00 +28°C° 0 mm 3 m/s 677 mmHg 36%
    22:00 +27°C° 0 mm 3 m/s 677 mmHg 38%
    23:00 +26°C° 0 mm 2 m/s 677 mmHg 40%

    Depois de amanhã, 18 Julho, Quarta-feira

    Tempo Temperatura Precipitação Vento Pressão Humidade
    00:00 +26°C° 0 mm 2 m/s 677 mmHg 41%
    01:00 +25°C° 0 mm 2 m/s 677 mmHg 42%
    02:00 +24°C° 0 mm 2 m/s 676 mmHg 43%
    03:00 +24°C° 0 mm 2 m/s 676 mmHg 43%
    04:00 +23°C° 0 mm 2 m/s 676 mmHg 43%
    05:00 +23°C° 0 mm 2 m/s 676 mmHg 43%
    06:00 +24°C° 0 mm 2 m/s 677 mmHg 38%
    07:00 +26°C° 0 mm 2 m/s 677 mmHg 33%
    08:00 +27°C° 0 mm 3 m/s 678 mmHg 27%
    09:00 +28°C° 0 mm 3 m/s 678 mmHg 25%
    10:00 +30°C° 0 mm 3 m/s 678 mmHg 22%
    11:00 +31°C° 0 mm 3 m/s 678 mmHg 19%
    12:00 +33°C° 0 mm 4 m/s 678 mmHg 18%
    13:00 +34°C° 0 mm 4 m/s 678 mmHg 18%
    14:00 +35°C° 0 mm 4 m/s 678 mmHg 17%
    15:00 +35°C° 0 mm 5 m/s 678 mmHg 19%
    16:00 +34°C° 0 mm 5 m/s 678 mmHg 21%
    17:00 +34°C° 0 mm 5 m/s 678 mmHg 22%
    18:00 +33°C° 0 mm 5 m/s 678 mmHg 26%
    19:00 +32°C° 0 mm 4 m/s 678 mmHg 30%
    20:00 +30°C° 0 mm 4 m/s 678 mmHg 34%
    21:00 +29°C° 0 mm 3 m/s 678 mmHg 36%
    22:00 +28°C° 0 mm 3 m/s 678 mmHg 38%
    23:00 +27°C° 0 mm 3 m/s 678 mmHg 40%

    19 Julho, Quinta-feira

    Tempo Temperatura Precipitação Vento Pressão Humidade
    00:00 +26°C° 0 mm 2 m/s 678 mmHg 41%
    01:00 +26°C° 0 mm 2 m/s 677 mmHg 42%
    02:00 +25°C° 0 mm 2 m/s 677 mmHg 43%
    03:00 +24°C° 0 mm 2 m/s 677 mmHg 43%
    04:00 +24°C° 0 mm 2 m/s 677 mmHg 44%
    05:00 +24°C° 0 mm 2 m/s 678 mmHg 44%
    06:00 +25°C° 0 mm 2 m/s 678 mmHg 39%
    07:00 +27°C° 0 mm 2 m/s 678 mmHg 34%
    08:00 +28°C° 0 mm 2 m/s 679 mmHg 29%
    09:00 +30°C° 0 mm 2 m/s 679 mmHg 25%
    10:00 +31°C° 0 mm 3 m/s 679 mmHg 22%
    11:00 +34°C° 0 mm 3 m/s 679 mmHg 18%
    12:00 +35°C° 0 mm 3 m/s 679 mmHg 17%
    13:00 +35°C° 0 mm 4 m/s 679 mmHg 15%
    14:00 +36°C° 0 mm 4 m/s 679 mmHg 14%
    15:00 +36°C° 0 mm 4 m/s 679 mmHg 15%
    16:00 +35°C° 0 mm 5 m/s 679 mmHg 17%
    17:00 +35°C° 0 mm 5 m/s 678 mmHg 18%
    18:00 +34°C° 0 mm 5 m/s 679 mmHg 22%
    19:00 +32°C° 0 mm 4 m/s 679 mmHg 26%
    20:00 +30°C° 0 mm 4 m/s 679 mmHg 30%
    21:00 +29°C° 0 mm 3 m/s 679 mmHg 31%
    22:00 +29°C° 0 mm 3 m/s 679 mmHg 33%
    23:00 +28°C° 0 mm 2 m/s 679 mmHg 34%

    20 Julho, Sexta-feira

    Tempo Temperatura Precipitação Vento Pressão Humidade
    00:00 +27°C° 0 mm 3 m/s 678 mmHg 35%
    01:00 +26°C° 0 mm 3 m/s 678 mmHg 35%
    02:00 +26°C° 0 mm 3 m/s 678 mmHg 36%
    03:00 +25°C° 0 mm 3 m/s 678 mmHg 38%
    04:00 +25°C° 0 mm 3 m/s 678 mmHg 40%
    05:00 +24°C° 0 mm 3 m/s 678 mmHg 42%
    06:00 +25°C° 0 mm 3 m/s 678 mmHg 39%
    07:00 +26°C° 0 mm 3 m/s 679 mmHg 37%
    08:00 +27°C° 0 mm 4 m/s 679 mmHg 35%
    09:00 +29°C° 0 mm 4 m/s 679 mmHg 30%
    10:00 +30°C° 0 mm 4 m/s 679 mmHg 26%
    11:00 +33°C° 0 mm 4 m/s 679 mmHg 22%
    12:00 +33°C° 0 mm 5 m/s 679 mmHg 21%
    13:00 +34°C° 0 mm 5 m/s 679 mmHg 20%
    14:00 +35°C° 0 mm 5 m/s 679 mmHg 18%
    15:00 +34°C° 0 mm 5 m/s 679 mmHg 20%
    16:00 +34°C° 0 mm 5 m/s 679 mmHg 22%
    17:00 +33°C° 0 mm 5 m/s 679 mmHg 23%
    18:00 +32°C° 0 mm 5 m/s 679 mmHg 27%
    19:00 +30°C° 0 mm 5 m/s 679 mmHg 32%
    20:00 +28°C° 0 mm 5 m/s 679 mmHg 36%
    21:00 +27°C° 0 mm 4 m/s 679 mmHg 38%
    22:00 +27°C° 0 mm 4 m/s 679 mmHg 41%
    23:00 +26°C° 0 mm 4 m/s 679 mmHg 44%

    21 Julho, Sábado

    Tempo Temperatura Precipitação Vento Pressão Humidade
    00:00 +25°C° 0 mm 4 m/s 678 mmHg 46%
    01:00 +23°C° 0 mm 4 m/s 678 mmHg 48%
    02:00 +23°C° 0 mm 4 m/s 678 mmHg 49%
    03:00 +22°C° 0 mm 4 m/s 678 mmHg 53%
    04:00 +21°C° 0 mm 4 m/s 678 mmHg 56%
    05:00 +21°C° 0 mm 3 m/s 678 mmHg 59%
    06:00 +22°C° 0 mm 4 m/s 678 mmHg 55%
    07:00 +23°C° 0 mm 4 m/s 678 mmHg 50%
    08:00 +25°C° 0 mm 4 m/s 679 mmHg 46%
    09:00 +27°C° 0 mm 4 m/s 679 mmHg 41%
    10:00 +28°C° 0 mm 4 m/s 679 mmHg 36%
    11:00 +29°C° 0 mm 5 m/s 679 mmHg 31%
    12:00 +30°C° 0 mm 5 m/s 679 mmHg 28%
    13:00 +32°C° 0 mm 5 m/s 679 mmHg 26%
    14:00 +33°C° 0 mm 5 m/s 678 mmHg 24%
    15:00 +33°C° 0 mm 5 m/s 678 mmHg 25%
    16:00 +32°C° 0 mm 5 m/s 678 mmHg 26%
    17:00 +32°C° 0 mm 6 m/s 678 mmHg 27%
    18:00 +29°C° 0 mm 5 m/s 678 mmHg 32%
    19:00 +28°C° 0 mm 5 m/s 678 mmHg 36%
    20:00 +27°C° 0 mm 4 m/s 678 mmHg 41%
    21:00 +26°C° 0 mm 4 m/s 678 mmHg 43%
    22:00 +25°C° 0 mm 4 m/s 678 mmHg 46%
    23:00 +25°C° 0 mm 3 m/s 677 mmHg 49%
    Mostrar mais